Location: Westminster
(33.3626°N, 96.4619°W)
Time: 22:43:02
(UTC+00:00)

OAO 3 Rocket - Pass Details

Date: 06 July 2022
Orbit: 627 x 681 km, 35.0° (Epoch: 14 August)

Event Time Altitude Azimuth Distance (km) Brightness Sun altitude
Exits shadow 09:36:22 21° 278° (W) 1,505 4.7 -18.6°
Maximum altitude 09:39:39 73° 197° (SSW) 710 3.1 -18.1°
Drops below altitude 10° 09:44:34 10° 113° (ESE) 2,104 6.1 -17.4°
Sets 09:46:57 0° 112° (ESE) 3,013 6.9 -17.0°
